7 * 24
多渠道服务支持
COSMOS 2179是苏联解体后由独立国家联合体(CIS)继承发射的格洛纳斯(GLONASS)导航卫星,于1992年1月29日发射入轨。作为GLONASS系统组网补网的重要卫星,它延续了苏联导航系统发展进程,承担全球全天候定位、测速与授时服务任务,为后续俄罗斯重启和完善格洛纳斯全球卫星导航星座奠定了基础。
俄罗斯(独联体)
(CIS)
| 数据来源 | 国际轨道数据 |
| 星历时间: | 2026-09-08T18:02:56+0800 3天前 查看轨道信息 |
| 半长轴: | 25507.977km |
| 偏心率: | 0.0014494 |
| 轨道倾角: | 64.944° |
| 近地点辐角 | 250.535° |
| 升交点赤经 | 67.184° |
| 平近点角 | 134.084° |
| 近地点: | 19092.868km |
| 远地点: | 19166.812km |
| 周期: | 675.731分钟 |
| 每日圈数: | 2.131026 |